Regional Weather Roundup
Issued by NWS Newport/Morehead, NC

Home | Current Version | Previous Version | Text Only | Print | Product List | Glossary On
Versions: 1 2 3 4 5 6 7 8 9 10 11 12 13 14 15 16 17 18 19 20 21 22 23 24 25 26 27 28 29 30 31 32 33 34 35 36 37 38 39 40 41 42 43 44 45 46 47 48 49 50
000
ASUS42 KMHX 281624
RWRMHX
WEATHER ROUNDUP FOR EASTERN NORTH CAROLINA
NATIONAL WEATHER SERVICE NEWPORT/MOREHEAD CITY NC
1200 PM EDT SAT MAR 28 2015

NOTE: "FAIR" INDICATES FEW OR NO CLOUDS BELOW 12,000 FEET
WITH NO SIGNIFICANT WEATHER AND/OR OBSTRUCTIONS TO VISIBILITY

NCZ015>017-031-032-045>047-102-103-281700-
NORTH COAST

CITY           SKY/WX    TMP DP  RH WIND       PRES   REMARKS
EDENTON        LGT RAIN  37  31  79 N12       30.02R
ELIZABETH CITY CLOUDY    43  30  60 NW10      29.99R
KITTY HAWK     CLOUDY    42  26  53 N10       29.97R
MANTEO         CLOUDY    42  28  57 NW9       29.99S

$$

NCZ045>047-081-094-103-104-281700-
CENTRAL COAST

CITY           SKY/WX    TMP DP  RH WIND       PRES   REMARKS
FRISCO         PTSUNNY   46  31  55 NW9       29.99R
SWANQUARTER      N/A     45 N/A N/A N6G16     29.97R

$$

NCZ095-097-098-100-101-281700-
SOUTHERN COAST

CITY           SKY/WX    TMP DP  RH WIND       PRES   REMARKS
BEAUFORT       PTSUNNY   47  35  63 NW12      30.01R
CEDAR ISLAND     N/A     46 N/A N/A W8        30.03S
JACKSONVILLE   PTSUNNY   46  33  60 NW12      30.02R
PINEY ISLAND   PTSUNNY  N/A N/A N/A W12       30.00R
WILMINGTON     PTSUNNY   48  35  60 NW13      30.04R


$$

NCZ011>013-027>030-043-044-078>080-089-090>093-098-281700-
COASTAL PLAIN

CITY           SKY/WX    TMP DP  RH WIND       PRES   REMARKS
AHOSKIE        LGT SNOW  33  30  88 NW5       30.04R
CLINTON        PTSUNNY   45  28  49 W8G18     30.06R
ELIZABETHTOWN  PTSUNNY   47  28  48 NW8       30.05S
GOLDSBORO      CLOUDY    43  34  71 W8        30.02R
GREENVILLE     CLOUDY    41  30  65 N8        30.04R
HAVELOCK       PTSUNNY   46  31  55 W13       30.02R
KENANSVILLE    CLOUDY    44  29  55 W10       30.05R
KINSTON        MOSUNNY   45  28  53 W7G13     30.04R
NEW BERN       PTSUNNY   46  33  60 NW10G18   30.02S
RICHLANDS      CLOUDY    45  32  61 NW6       30.04R
ROCKY MOUNT    MOSUNNY   42  25  50 NW10      30.04R
WASHINGTON     MOSUNNY   43  34  70 NW14G20   30.02R
WHITEVILLE     MOSUNNY   47  28  48 W5        30.05S

$$

AMZ130-135-150-152-154-156-158-170-250-252-270-ANZ085-086-088-633-658-670-281700-
MARINE OBSERVATIONS

STATION/POSITION TIME  TEMP    WIND        PRES    WAVE   SWELL
                       AIR SEA DIR/SP/G            HT/PER HT/PER
                 (UTC) (F)     (DEG/KT/KT) (MB)    (FT/S) (FT/S)
CHESAPEAKE LIGHT 1600   36     340/ 21/ 22 1015.2
64 E VA BEACH    1550   41 56  320/ 25/ 29 1013.0    9/ 7   2/10
DUCK             1600   40 42  330/ 13/ 15 1014.3
2 E DUCK         1511      42                N/A     6/ 7   2/11
10 NE DUCK       NOT AVBL
OREGON INLET     1600   41 44  350/ 10/ 16 1015.1
HATTERAS CG      1600          310/ 10/ 11   N/A
CAPE LOOKOUT     1600   46     300/  7/  9 1016.0
BEAUFORT LAB     1600   46 55  350/  8/ 11 1015.3
27 SE WRIGHTSVLE 1600   44 65  360/ 12/ 16 1018.5
5 SE WRIGHTSVLE  1600   47 56  340/ 10/ 14 1017.0
225 S CAPE HAT   1550   61 68  290/ 19/ 25 1014.8   13/10   8/10
41 SE CHARLESTON 1550   51 68  310/ 12/ 17 1017.8    5/ 7   3/ 7

$$


USA.gov is the U.S. government's official web portal to all federal, state and local government web resources and services.